Location: Diebersbach
(48.5163°N, 8.0558°E)
Time: 13:44:31
(UTC+00:00)

Cosmos 1763 Rocket - Pass Details

Date: 20 June 2021
Orbit: 732 x 781 km, 74.0° (Epoch: 29 July)

Event Time Altitude Azimuth Distance (km) Brightness Sun altitude
Exits shadow 01:15:45 16° 239° (WSW) 1,871 5.0 -14.2°
Maximum altitude 01:19:23 38° 302° (WNW) 1,122 4.4 -14.0°
Drops below altitude 10° 01:24:12 10° 11° (N) 2,278 7.2 -13.6°
Sets 01:26:44 0° 19° (NNE) 3,214 8.6 -13.4°
